Regional Weather Roundup
Issued by NWS

Home | Current Version | Previous Version | Text Only | Print | Product List | Glossary On
Versions: 1 2 3 4 5 6 7 8 9 10 11 12 13 14 15 16 17 18 19 20 21 22 23 24 25 26 27 28 29 30 31 32 33 34 35 36 37 38 39 40 41 42 43 44 45 46 47 48 49 50
000
ASUS46 KSEW 290010
RWRWA

WASHINGTON REGIONAL WEATHER ROUNDUP
NATIONAL WEATHER SERVICE SEATTLE WA
500 PM PDT SAT MAR 28 2015

NOTE:"FAIR" INDICATES FEW OR NO CLOUDS BELOW 12,000 FEET WITH NO
SIGNIFICANT WEATHER AND/OR OBSTRUCTIONS TO VISIBILITY.

WAZ505-507>509-290100-
SEATTLE, TACOMA, EVERETT, AND VICINITY

CITY           SKY/WX    TMP DP  RH WIND       PRES   REMARKS
EVERETT        CLOUDY    58  42  55 S15G24    30.30S
6HR MIN TEMP:  52; 6HR MAX TEMP:  59;

BOEING FIELD   PTSUNNY   60  44  55 S12       30.32R
6HR MIN TEMP:  57; 6HR MAX TEMP:  64;

RENTON         CLOUDY    60  42  51 S14G22    30.32S
6HR MIN TEMP:  56; 6HR MAX TEMP:  62;

SEATAC AIRPORT PTSUNNY   56  44  64 SW13      30.33S
6HR MIN TEMP:  54; 6HR MAX TEMP:  60;

JBLM-MCCHORD   CLOUDY    58  46  64 SW13      30.33S
6HR MIN TEMP:  55; 6HR MAX TEMP:  59; 6HR PCP: TRACE;

PUYALLUP       CLOUDY    55  50  82 CALM      30.34S
BREMERTON      PTSUNNY   55  45  67 SW17      30.34R
6HR MIN TEMP:  54; 6HR MAX TEMP:  61;

JBLM-FT LEWIS  CLOUDY    57  46  66 SW8       30.33S
6HR MIN TEMP:  54; 6HR MAX TEMP:  59; 6HR PCP: TRACE;

TACOMA NARROWS CLOUDY    56  44  64 VRB6      30.33F
6HR MIN TEMP:  53; 6HR MAX TEMP:  58;

$$

WAZ001-503-506-510-514-515-290100-
NORTH INTERIOR

CITY           SKY/WX    TMP DP  RH WIND       PRES   REMARKS
BELLINGHAM     CLOUDY    56  40  55 CALM      30.29S
6HR MIN TEMP:  53; 6HR MAX TEMP:  58;

FRIDAY HARBOR  CLOUDY    57  44  62 CALM      30.31S
6HR MIN TEMP:  54; 6HR MAX TEMP:  58;

EASTSOUND      CLOUDY    55  43  62 MISG      30.28S
PORT ANGELES   CLOUDY    53  44  71 N5        30.31R
6HR MIN TEMP:  52; 6HR MAX TEMP:  56; 6HR PCP: TRACE;

NAS WHIDBEY    CLOUDY    58  45  62 NW7       30.30S
6HR MIN TEMP:  55; 6HR MAX TEMP:  61;

ARLINGTON      CLOUDY    61  43  51 S15       30.30S
6HR MIN TEMP:  54; 6HR MAX TEMP:  61;

BURLINGTON     CLOUDY    57  45  62 MISG      30.29F
$$

WAZ020-022-039-040-504-511-512-290100-
SOUTHWEST INTERIOR

CITY           SKY/WX    TMP DP  RH WIND       PRES   REMARKS
SHELTON        PTSUNNY   55  43  63 SW14G23   30.32R
6HR MIN TEMP:  51; 6HR MAX TEMP:  59; 6HR PCP: TRACE;

OLYMPIA        CLOUDY    57  43  59 W12       30.34S
6HR MIN TEMP:  52; 6HR MAX TEMP:  58; 6HR PCP: TRACE;

CHEHALIS       FAIR      61  45  55 VRB5      30.35R
KELSO          CLOUDY    61  45  55 CALM      30.38S
6HR MIN TEMP:  54; 6HR MAX TEMP:  61;

VANCOUVER      PTSUNNY   60  39  45 VRB5      30.35F
6HR MIN TEMP:  54; 6HR MAX TEMP:  61;

SCAPPOOSE, OR  CLOUDY    61  41  47 S12       30.34S
6HR MIN TEMP:  55; 6HR MAX TEMP:  63;

PORTLAND, OR   PTSUNNY   60  41  49 SW8       30.36F
6HR MIN TEMP:  55; 6HR MAX TEMP:  61;

$$

WAZ021-516-517-290100-
WASHINGTON COAST

CITY           SKY/WX    TMP DP  RH WIND       PRES   REMARKS
FORKS          LGT RAIN  50  46  86 S8        30.31F FOG
6HR MIN TEMP:  50; 6HR MAX TEMP:  54; 6HR PCP:  0.08;

HOQUIAM        CLOUDY    54  45  71 S15       30.35S
6HR MIN TEMP:  53; 6HR MAX TEMP:  57; 6HR PCP: TRACE;

ASTORIA, OR    CLOUDY    54  44  69 SW13      30.37R
6HR MIN TEMP:  52; 6HR MAX TEMP:  58;

$$

WAZ019-023-024-040-518-519-290100-
CASCADE MOUNTAINS AND COLUMBIA GORGE

CITY           SKY/WX    TMP DP  RH WIND       PRES   REMARKS
TROUTDALE, OR  CLOUDY    61  40  45 SW6       30.35F
6HR MIN TEMP:  55; 6HR MAX TEMP:  62;

THE DALLES, OR MOSUNNY   62  37  39 NW17G26   30.32F
6HR MIN TEMP:  55; 6HR MAX TEMP:  64;

$$

WAZ026-027-041>044-520-521-290100-
EAST SLOPES

CITY           SKY/WX    TMP DP  RH WIND       PRES   REMARKS
OMAK           MOSUNNY   64  23  21 W15       30.13S
6HR MIN TEMP:  59; 6HR MAX TEMP:  68;

WENATCHEE      PTSUNNY   62  30  29 NW16      30.22R
6HR MIN TEMP:  59; 6HR MAX TEMP:  65;

ELLENSBURG     MOSUNNY   58  35  42 NW22      30.27S
6HR MIN TEMP:  54; 6HR MAX TEMP:  59;

YAKIMA         PTSUNNY   65  33  30 W15G28    30.26R
6HR MIN TEMP:  61; 6HR MAX TEMP:  67;

$$

WAZ028-034-035-290100-
COLUMBIA BASIN

CITY           SKY/WX    TMP DP  RH WIND       PRES   REMARKS
EPHRATA        MOSUNNY   62  31  31 W17       30.20S
6HR MIN TEMP:  59; 6HR MAX TEMP:  65;

MOSES LAKE     MOSUNNY   63  34  33 W10       30.22S
6HR MIN TEMP:  59; 6HR MAX TEMP:  65;

PASCO          MOSUNNY   65  35  33 SW17      30.27S
6HR MIN TEMP:  60; 6HR MAX TEMP:  67;

HERMISTON, OR  SUNNY     63  35  35 W21       30.29S
6HR MIN TEMP:  60; 6HR MAX TEMP:  65;

$$

WAZ036>038-290100-
NORTHEAST WASHINGTON

CITY           SKY/WX    TMP DP  RH WIND       PRES   REMARKS
SPOKANE GEIGER PTSUNNY   56  34  43 SW25G32   30.20R
6HR MIN TEMP:  51; 6HR MAX TEMP:  58;

SPOKANE FELTS  CLOUDY    59  34  39 W16G30    30.20R
6HR MIN TEMP:  52; 6HR MAX TEMP:  59;

FAIRCHILD AFB  PTSUNNY   55  36  47 SW23G29   30.20S
6HR MIN TEMP:  51; 6HR MAX TEMP:  56; 6HR PCP: TRACE;

COEURDALENE,ID PTSUNNY   54  34  47 SW26G33   30.20R
6HR MIN TEMP:  48; 6HR MAX TEMP:  55;

DEER PARK      CLOUDY    56  33  42 SW23      30.18R
6HR MIN TEMP:  52; 6HR MAX TEMP:  60;

$$

WAZ029>033-290100-
SOUTHEAST WASHINGTON

CITY           SKY/WX    TMP DP  RH WIND       PRES   REMARKS
PULLMAN        PTSUNNY   52  35  52 W17       30.29R
6HR MIN TEMP:  49; 6HR MAX TEMP:  54;

LEWISTON, ID   MOSUNNY   59  34  39 NW15G23   30.27R
6HR MIN TEMP:  57; 6HR MAX TEMP:  62;

WALLA WALLA    SUNNY     62  38  40 W15       30.30S
6HR MIN TEMP:  57; 6HR MAX TEMP:  62;

PENDLETON, OR  SUNNY     59  37  44 W20       30.29S
6HR MIN TEMP:  54; 6HR MAX TEMP:  59;

$$



USA.gov is the U.S. government's official web portal to all federal, state and local government web resources and services.